GW6880 Weather Reports


time (UTC)temp
C
wind
direction
speed
KPH
gust
KPH
rain 1hr
cm
rain 24hr
cm
rain mn
cm
humidity
%
barometer
mb
20260506141557 25 105 0.0 0.0 0.00 0.00 0.00 91 1010.5
20260506141055 25 105 0.0 0.0 0.00 0.00 0.00 91 1010.5
20260506140552 25 104 0.0 0.0 0.00 0.00 0.00 91 1010.8
20260506140049 25 99 0.0 0.0 0.00 0.00 0.00 92 1010.5
20260506135546 25 99 0.0 0.0 0.00 0.00 0.00 92 1010.3
20260506135042 25 123 0.0 0.0 0.00 0.00 0.00 92 1009.9
20260506134539 25 303 0.0 1.6 0.00 0.00 0.00 92 1010.1
20260506134035 25 102 1.6 1.6 0.00 0.00 0.00 93 1009.9
20260506133532 25 46 0.0 1.6 0.00 0.00 0.00 93 1010.1
20260506133029 24 109 3.2 3.2 0.00 0.00 0.00 93 1009.8
20260506132526 24 170 0.0 1.6 0.00 0.00 0.00 93 1010.1
20260506132024 24 95 3.2 4.8 0.00 0.00 0.00 93 1009.9
20260506131520 24 199 1.6 1.6 0.00 0.00 0.00 93 1009.7
20260506131017 24 61 1.6 1.6 0.00 0.00 0.00 93 1009.7
20260506130514 24 198 0.0 0.0 0.00 0.00 0.00 93 1009.9
20260506130011 24 218 1.6 3.2 0.00 0.00 0.00 93 1009.8
20260506125510 24 217 1.6 1.6 0.00 0.00 0.00 93 1009.5
20260506125007 24 147 3.2 3.2 0.00 0.00 0.00 93 1009.5
20260506124505 24 205 1.6 1.6 0.00 0.00 0.00 93 1009.7
20260506124002 24 205 1.6 1.6 0.00 0.00 0.00 93 1009.6
20260506123500 24 197 0.0 0.0 0.00 0.00 0.00 93 1009.5
20260506122958 24 202 0.0 0.0 0.00 0.00 0.00 93 1009.6
20260506122454 24 215 0.0 1.6 0.00 0.00 0.00 93 1009.7
20260506121953 24 184 1.6 3.2 0.00 0.00 0.00 93 1009.7
20260506121449 24 213 0.0 1.6 0.00 0.00 0.00 93 1009.7
20260506120946 24 178 0.0 1.6 0.00 0.00 0.00 93 1009.5
20260506120444 24 125 1.6 3.2 0.00 0.00 0.00 93 1009.4
20260506115941 24 186 0.0 1.6 0.00 0.00 0.00 93 1009.4
20260506115439 24 181 0.0 1.6 0.00 0.00 0.00 93 1009.3
20260506114937 24 224 0.0 0.0 0.00 0.00 0.00 93 1009.3
20260506114434 24 224 0.0 1.6 0.00 0.00 0.00 93 1009.3
20260506113933 24 220 0.0 0.0 0.00 0.00 0.00 93 1009.3
20260506113430 24 219 0.0 0.0 0.00 0.00 0.00 93 1009.6
20260506112926 24 235 0.0 0.0 0.00 0.00 0.00 93 1009.3
20260506112424 24 197 0.0 1.6 0.00 0.00 0.00 93 1009.3
20260506111921 24 188 0.0 3.2 0.00 0.00 0.00 93 1009.6
20260506111419 24 217 0.0 1.6 0.00 0.00 0.00 93 1009.3
20260506110916 24 221 0.0 1.6 0.00 0.00 0.00 93 1009.4
20260506110414 24 163 0.0 3.2 0.00 0.00 0.00 93 1009.3
20260506105910 24 181 1.6 3.2 0.00 0.00 0.00 93 1009.5
20260506105406 24 205 0.0 0.0 0.00 0.00 0.00 93 1009.2
20260506104904 24 223 1.6 1.6 0.00 0.00 0.00 93 1009.2
20260506104402 24 251 0.0 3.2 0.00 0.00 0.00 93 1009.2
20260506103859 24 157 1.6 3.2 0.00 0.00 0.00 93 1009.0
20260506103356 24 157 1.6 3.2 0.00 0.00 0.00 93 1009.1
20260506102853 24 157 1.6 3.2 0.00 0.00 0.00 93 1009.0
20260506102352 24 205 0.0 0.0 0.00 0.00 0.00 93 1009.0
20260506101848 24 189 1.6 1.6 0.00 0.00 0.00 93 1008.8
20260506101344 24 189 1.6 1.6 0.00 0.00 0.00 93 1008.7
20260506100842 24 195 1.6 3.2 0.00 0.00 0.00 93 1008.5
20260506100341 24 240 0.0 1.6 0.00 0.00 0.00 93 1008.8
20260506095839 24 117 3.2 8.0 0.00 0.00 0.00 93 1008.6
20260506095335 24 239 0.0 0.0 0.00 0.00 0.00 93 1008.8
20260506094832 24 237 0.0 3.2 0.00 0.00 0.00 93 1008.6
20260506094331 24 219 1.6 1.6 0.00 0.00 0.00 93 1008.6
20260506093829 24 116 4.8 8.0 0.00 0.00 0.00 93 1008.5
20260506093325 24 127 4.8 8.0 0.00 0.00 0.00 93 1008.4
20260506092823 24 191 1.6 3.2 0.00 0.00 0.00 92 1008.4
20260506092321 24 191 1.6 3.2 0.00 0.00 0.00 92 1008.3
20260506091818 24 191 1.6 3.2 0.00 0.00 0.00 92 1008.1
20260506091316 24 191 1.6 3.2 0.00 0.00 0.00 92 1008.1
20260506090813 24 191 1.6 3.2 0.00 0.00 0.00 92 1008.3
20260506090310 24 191 1.6 3.2 0.00 0.00 0.00 92 1008.3
20260506085807 24 191 1.6 3.2 0.00 0.00 0.00 92 1008.4
20260506085305 24 191 1.6 3.2 0.00 0.00 0.00 92 1008.1
20260506084800 24 191 1.6 3.2 0.00 0.00 0.00 92 1008.1
20260506084256 24 244 0.0 1.6 0.00 0.00 0.00 92 1008.4
20260506083753 24 309 0.0 0.0 0.00 0.00 0.00 92 1008.6
20260506083251 24 309 0.0 0.0 0.00 0.00 0.00 92 1008.1
20260506082748 24 309 0.0 0.0 0.00 0.00 0.00 92 1008.3
20260506082243 24 309 0.0 0.0 0.00 0.00 0.00 92 1008.1
20260506081741 24 309 0.0 0.0 0.00 0.00 0.00 92 1008.4
20260506081238 24 309 0.0 0.0 0.00 0.00 0.00 92 1008.2
20260506080737 24 186 3.2 3.2 0.00 0.00 0.00 92 1008.4
20260506080233 24 128 1.6 1.6 0.00 0.00 0.00 92 1008.5
20260506073217 24 223 0.0 0.0 0.00 0.00 0.00 92 1008.6
20260506072713 24 209 0.0 1.6 0.00 0.00 0.00 92 1008.5
20260506072211 24 237 0.0 1.6 0.00 0.00 0.00 92 1008.7
20260506071708 25 151 3.2 3.2 0.00 0.00 0.00 91 1008.6
20260506071206 25 217 4.8 4.8 0.00 0.00 0.00 91 1008.9
20260506070703 25 131 0.0 1.6 0.00 0.00 0.00 91 1008.8
20260506070200 25 315 1.6 1.6 0.00 0.00 0.00 91 1008.9
20260506062137 24 173 4.8 4.8 0.00 0.00 0.00 91 1009.1
20260506061633 24 173 4.8 4.8 0.00 0.00 0.00 91 1009.0
20260506061131 24 173 4.8 4.8 0.00 0.00 0.00 91 1008.7
20260506060629 24 151 0.0 1.6 0.00 0.00 0.00 92 1008.7
20260506060126 24 151 0.0 1.6 0.00 0.00 0.00 92 1008.9
20260506051057 25 204 8.0 9.7 0.00 0.00 0.00 91 1009.1
20260506050555 25 204 8.0 9.7 0.00 0.00 0.00 91 1009.0
20260506045046 25 164 1.6 4.8 0.00 0.00 0.00 90 1009.0
20260506044544 25 226 0.0 0.0 0.00 0.00 0.00 90 1009.0
20260506044040 25 195 4.8 4.8 0.00 0.00 0.00 90 1009.0
20260506043537 25 185 4.8 8.0 0.00 0.00 0.00 90 1008.8
20260506043036 25 225 3.2 9.7 0.00 0.00 0.00 90 1008.8
20260506042535 25 194 4.8 4.8 0.00 0.00 0.00 89 1008.9
20260506042032 25 231 1.6 4.8 0.00 0.00 0.00 89 1008.7
20260506041531 25 195 4.8 4.8 0.00 0.00 0.00 89 1008.9
20260506041027 25 170 1.6 8.0 0.00 0.00 0.00 89 1008.7
20260506040525 25 124 1.6 3.2 0.00 0.00 0.00 89 1008.6
20260506040021 25 113 3.2 8.0 0.00 0.00 0.00 88 1008.4
20260506035518 25 171 1.6 8.0 0.00 0.00 0.00 88 1008.4
20260506035014 25 204 0.0 1.6 0.00 0.00 0.00 88 1008.5
20260506034512 25 230 1.6 3.2 0.00 0.00 0.00 88 1008.2
20260506034009 25 132 4.8 8.0 0.00 0.00 0.00 88 1008.4
20260506033506 25 137 3.2 3.2 0.00 0.00 0.00 88 1008.4
20260506033003 25 211 3.2 4.8 0.00 0.00 0.00 88 1008.2
20260506032500 25 143 1.6 8.0 0.00 0.00 0.00 87 1008.1
20260506031956 26 156 3.2 8.0 0.00 0.00 0.00 87 1008.1
20260506031454 26 185 3.2 8.0 0.00 0.00 0.00 87 1007.9
20260506030951 26 208 1.6 3.2 0.00 0.00 0.00 86 1007.9
20260506030449 26 198 1.6 4.8 0.00 0.00 0.00 86 1007.7
20260506025946 26 156 3.2 8.0 0.00 0.00 0.00 86 1007.8
20260506025443 26 196 0.0 4.8 0.00 0.00 0.00 86 1007.7
20260506024939 26 155 3.2 8.0 0.00 0.00 0.00 86 1007.8
20260506024436 26 202 3.2 4.8 0.00 0.00 0.00 86 1007.5
20260506023932 26 181 6.4 8.0 0.00 0.00 0.00 85 1007.1
20260506023429 26 213 4.8 8.0 0.00 0.00 0.00 85 1007.6
20260506022926 26 70 1.6 8.0 0.00 0.00 0.00 84 1007.1
20260506022424 26 134 8.0 12.9 0.00 0.00 0.00 83 1006.9
20260506021922 26 175 3.2 11.3 0.00 0.00 0.00 83 1006.8
20260506021418 26 190 1.6 4.8 0.00 0.00 0.00 82 1006.8
20260506020915 26 216 1.6 4.8 0.00 0.00 0.00 81 1006.9
20260506020413 27 200 1.6 4.8 0.00 0.00 0.00 81 1006.6
20260506015910 27 211 3.2 4.8 0.00 0.00 0.00 81 1006.8
20260506015408 27 190 3.2 8.0 0.00 0.00 0.00 81 1006.4
20260506014904 27 195 1.6 4.8 0.00 0.00 0.00 80 1006.5
20260506014401 27 208 0.0 3.2 0.00 0.00 0.00 80 1006.5
20260506013858 27 172 0.0 8.0 0.00 0.00 0.00 80 1006.5
20260506013356 27 182 4.8 4.8 0.00 0.00 0.00 80 1006.3
20260506012851 27 190 1.6 3.2 0.00 0.00 0.00 79 1006.4
20260506012348 27 202 1.6 4.8 0.00 0.00 0.00 79 1006.5
20260506011846 27 182 1.6 1.6 0.00 0.00 0.00 78 1006.6
20260506011343 27 191 1.6 1.6 0.00 0.00 0.00 78 1006.7
20260506010840 27 172 1.6 1.6 0.00 0.00 0.00 77 1006.6
20260506010338 28 203 4.8 4.8 0.00 0.00 0.00 76 1006.4
20260506005834 28 150 3.2 4.8 0.00 0.00 0.00 76 1006.4
20260506005331 28 218 0.0 1.6 0.00 0.00 0.00 76 1006.3
20260506004827 28 167 3.2 4.8 0.00 0.00 0.00 76 1006.3
20260506004325 28 222 0.0 3.2 0.00 0.00 0.00 76 1006.2
20260506003821 28 196 1.6 3.2 0.00 0.00 0.00 76 1006.3
20260506003317 28 170 0.0 3.2 0.00 0.00 0.00 76 1006.5
20260506002814 28 206 1.6 3.2 0.00 0.00 0.00 76 1006.1
20260506002310 28 218 0.0 3.2 0.00 0.00 0.00 76 1006.2
20260506001806 28 192 3.2 4.8 0.00 0.00 0.00 75 1006.2
20260506001303 28 209 1.6 3.2 0.00 0.00 0.00 75 1006.3
20260506000800 28 198 1.6 4.8 0.00 0.00 0.00 74 1006.2
20260506000258 28 158 1.6 4.8 0.00 0.00 0.00 74 1006.0
20260505235755 28 208 4.8 8.0 0.00 0.00 0.00 74 1006.0
20260505235252 28 150 3.2 4.8 0.00 0.00 0.00 74 1006.0
20260505234749 28 256 0.0 3.2 0.00 0.00 0.00 75 1006.1
20260505234247 28 213 4.8 8.0 0.00 0.00 0.00 74 1006.0
20260505233743 28 187 4.8 4.8 0.00 0.00 0.00 74 1006.0
20260505233241 28 104 3.2 4.8 0.00 0.00 0.00 74 1006.0
20260505232738 28 240 3.2 3.2 0.00 0.00 0.00 73 1006.1
20260505232235 28 208 3.2 3.2 0.00 0.00 0.00 73 1006.0
20260505231732 28 201 4.8 8.0 0.00 0.00 0.00 73 1006.0
20260505231231 28 156 4.8 9.7 0.00 0.00 0.00 73 1005.9
20260505230729 29 227 0.0 1.6 0.00 0.00 0.00 73 1005.7
20260505230225 28 298 1.6 1.6 0.00 0.00 0.00 73 1005.9
20260505225722 29 161 3.2 8.0 0.00 0.00 0.00 73 1005.7
20260505225219 29 241 0.0 4.8 0.00 0.00 0.00 73 1005.9
20260505224714 29 219 3.2 4.8 0.00 0.00 0.00 73 1005.8
20260505224212 28 174 1.6 8.0 0.00 0.00 0.00 72 1005.7
20260505223709 29 218 8.0 14.5 0.00 0.00 0.00 71 1005.9
20260505223205 29 148 0.0 8.0 0.00 0.00 0.00 72 1006.1
20260505222701 28 181 3.2 11.3 0.00 0.00 0.00 71 1005.9
20260505222157 29 158 4.8 9.7 0.00 0.00 0.00 72 1005.8
20260505221655 29 114 4.8 8.0 0.00 0.00 0.00 72 1005.9
20260505221151 29 203 4.8 12.9 0.00 0.00 0.00 72 1005.6
20260505220649 29 214 1.6 9.7 0.00 0.00 0.00 71 1006.0
20260505220146 29 175 3.2 3.2 0.00 0.00 0.00 71 1005.9
20260505215644 29 197 4.8 4.8 0.00 0.00 0.00 72 1006.2
20260505215142 28 122 4.8 4.8 0.00 0.00 0.00 72 1006.4
20260505214639 28 232 3.2 4.8 0.00 0.00 0.00 72 1006.5
20260505214136 29 192 8.0 9.7 0.00 0.00 0.00 71 1006.3
20260505213634 30 197 3.2 3.2 0.00 0.00 0.00 69 1006.4
20260505213130 30 199 3.2 8.0 0.00 0.00 0.00 69 1006.6
20260505212626 30 233 1.6 4.8 0.00 0.00 0.00 68 1006.4
20260505212124 30 262 3.2 3.2 0.00 0.00 0.00 69 1006.5
20260505211621 30 148 8.0 8.0 0.00 0.00 0.00 69 1006.3
20260505211118 30 200 3.2 3.2 0.00 0.00 0.00 70 1006.4
20260505210615 30 217 4.8 8.0 0.00 0.00 0.00 70 1006.5
20260505210112 29 269 3.2 3.2 0.00 0.00 0.00 71 1006.6
20260505205609 28 267 3.2 3.2 0.00 0.00 0.00 71 1006.6
20260505205107 28 267 3.2 3.2 0.00 0.00 0.00 71 1006.8
20260505204604 28 228 1.6 1.6 0.00 0.00 0.00 72 1006.9
20260505204101 28 261 1.6 3.2 0.00 0.00 0.00 72 1007.0
20260505203557 28 242 0.0 1.6 0.00 0.00 0.00 73 1007.3
20260505203055 28 133 1.6 8.0 0.00 0.00 0.00 74 1007.3
20260505202550 28 310 1.6 4.8 0.00 0.00 0.00 74 1007.8
20260505202047 28 178 4.8 4.8 0.00 0.00 0.00 74 1007.5
20260505201544 28 272 1.6 4.8 0.00 0.00 0.00 75 1007.9
20260505201042 28 215 1.6 8.0 0.00 0.00 0.00 75 1007.5
20260505200539 28 266 1.6 1.6 0.00 0.00 0.00 74 1007.9
20260505200036 27 251 1.6 3.2 0.00 0.00 0.00 75 1007.8
20260505195532 27 250 1.6 3.2 0.00 0.00 0.00 75 1008.1
20260505195030 27 219 3.2 4.8 0.00 0.00 0.00 76 1007.9
20260505194526 28 209 3.2 8.0 0.00 0.00 0.00 75 1008.0
20260505194022 28 238 1.6 8.0 0.00 0.00 0.00 75 1008.1
20260505193519 27 265 1.6 3.2 0.00 0.00 0.00 76 1008.1
20260505193016 28 179 8.0 14.5 0.00 0.00 0.00 75 1007.9
20260505192515 27 336 0.0 1.6 0.00 0.00 0.00 76 1008.0
20260505192012 27 249 3.2 4.8 0.00 0.00 0.00 76 1008.1
20260505191510 27 281 1.6 3.2 0.00 0.00 0.00 76 1008.2
20260505191008 27 250 3.2 4.8 0.00 0.00 0.00 76 1007.9
20260505190502 27 231 1.6 3.2 0.00 0.00 0.00 77 1008.4
20260505185958 27 193 4.8 8.0 0.00 0.00 0.00 76 1008.2
20260505185456 27 323 1.6 1.6 0.00 0.00 0.00 78 1008.3
20260505184951 27 254 1.6 1.6 0.00 0.00 0.00 77 1008.6
20260505184449 27 222 1.6 3.2 0.00 0.00 0.00 78 1008.7
20260505183945 26 168 3.2 4.8 0.00 0.00 0.00 80 1008.8
20260505183442 26 175 6.4 8.0 0.00 0.00 0.00 79 1008.8
20260505182939 26 245 0.0 1.6 0.00 0.00 0.00 79 1008.8
20260505182436 26 260 1.6 4.8 0.00 0.00 0.00 78 1008.8
20260505181932 26 244 0.0 3.2 0.00 0.00 0.00 79 1008.9
20260505181430 26 274 1.6 4.8 0.00 0.00 0.00 80 1009.0
20260505180926 26 242 0.0 1.6 0.00 0.00 0.00 80 1009.0
20260505180423 26 255 1.6 3.2 0.00 0.00 0.00 80 1009.0
20260505175919 26 304 1.6 3.2 0.00 0.00 0.00 81 1009.1
20260505175416 26 257 0.0 0.0 0.00 0.00 0.00 82 1009.2
20260505174912 25 296 1.6 3.2 0.00 0.00 0.00 82 1009.2
20260505174410 25 280 0.0 1.6 0.00 0.00 0.00 83 1009.2
20260505173906 25 282 0.0 1.6 0.00 0.00 0.00 83 1009.1
20260505173402 25 276 1.6 3.2 0.00 0.00 0.00 83 1009.3
20260505172859 25 289 1.6 3.2 0.00 0.00 0.00 84 1009.5
20260505172357 25 256 1.6 1.6 0.00 0.00 0.00 84 1009.4
20260505171856 25 282 1.6 3.2 0.00 0.00 0.00 84 1009.4
20260505171354 25 282 1.6 3.2 0.00 0.00 0.00 84 1009.6
20260505170850 25 207 4.8 4.8 0.00 0.00 0.00 84 1009.6
20260505170347 25 314 0.0 3.2 0.00 0.00 0.00 84 1009.5
20260505165842 25 262 0.0 1.6 0.00 0.00 0.00 84 1009.6
20260505165338 25 270 0.0 3.2 0.00 0.00 0.00 84 1009.6
20260505164834 25 233 0.0 1.6 0.00 0.00 0.00 84 1009.5
20260505164331 25 132 1.6 3.2 0.00 0.00 0.00 84 1009.5
20260505163829 25 249 0.0 0.0 0.00 0.00 0.00 84 1009.5
20260505163328 24 226 3.2 4.8 0.00 0.00 0.00 85 1009.4
20260505162826 24 258 1.6 3.2 0.00 0.00 0.00 87 1009.5
20260505162321 23 269 0.0 3.2 0.00 0.00 0.00 88 1009.5
20260505161819 23 251 0.0 1.6 0.00 0.00 0.00 88 1009.8
20260505161316 23 277 1.6 1.6 0.00 0.00 0.00 88 1009.5
20260505160813 23 287 0.0 0.0 0.00 0.00 0.00 88 1009.6
20260505160311 23 278 0.0 1.6 0.00 0.00 0.00 88 1009.5
20260505153250 22 248 1.6 1.6 0.00 0.00 0.00 90 1009.7
20260505152747 22 288 1.6 4.8 0.00 0.00 0.00 90 1009.9
20260505152244 22 187 3.2 3.2 0.00 0.00 0.00 90 1009.5
20260505151743 22 250 1.6 1.6 0.00 0.00 0.00 90 1009.4
20260505151241 22 273 3.2 3.2 0.00 0.00 0.00 91 1009.3
20260505150738 22 235 0.0 3.2 0.00 0.00 0.00 91 1009.5
20260505150236 22 286 0.0 3.2 0.00 0.00 0.00 91 1009.4